Location: St. Louis
(38.6270°N, 90.1994°W)
Time: 11:54:16
(UTC-06:00)

A-11 Canister half - Pass Details

Date: 12 December 2021
Orbit: 1524 x 1684 km, 47.3° (Epoch: 25 January)

Event Time Altitude Azimuth Distance (km) Brightness Sun altitude
Rises 02:13:38 0° 281° (WNW) 4,935 - -56.6°
Reaches altitude 10° 02:16:58 10° 287° (WNW) 3,949 - -56.0°
Maximum altitude 02:26:51 52° 2° (N) 2,004 - -54.2°
Exits shadow 02:31:46 31° 61° (ENE) 2,619 10.3 -53.2°
Drops below altitude 10° 02:36:35 10° 78° (ENE) 3,893 11.5 -52.3°
Sets 02:39:51 0° 83° (E) 4,860 12.2 -51.7°
